This is the latest recevied weather packets stored in our database for station/object W4ZHA. If no packets are shown the sender has not sent any weather packets the latest 10 day(s).
| Time | Temp. | Humidity | Pressure | Rain* | Wind** | Luminosity | Snow |
|---|---|---|---|---|---|---|---|
| 1787775867 | 30.56° C | 55% | 1015.5 hPa | 0 mm | - | 162 W/m² | - |
| 1787775562 | 30° C | 56% | 1015.8 hPa | 0 mm | - | 164 W/m² | - |
| 1787775261 | 31.11° C | 48% | 1015.5 hPa | 0 mm | - | 146 W/m² | - |
| 1787774960 | 31.67° C | 54% | 1015.8 hPa | 0 mm | - | 183 W/m² | - |
| 1787774660 | 31.11° C | 45% | 1015.5 hPa | 0 mm | - | 175 W/m² | - |
| 1787774358 | 31.67° C | 45% | 1015.5 hPa | 0 mm | - | 210 W/m² | - |
| 1787774055 | 30.56° C | 55% | 1015.5 hPa | 0 mm | - | 265 W/m² | - |
| 1787773752 | 30.56° C | 51% | 1015.5 hPa | 0 mm | - | 181 W/m² | - |
| 1787773448 | 31.67° C | 45% | 1015.8 hPa | 0 mm | - | 155 W/m² | - |
| 1787773143 | 31.11° C | 47% | 1016.1 hPa | 0 mm | - | 169 W/m² | - |
| 1787772839 | 31.67° C | 45% | 1016.1 hPa | 0 mm | - | 245 W/m² | - |
| 1787772537 | 31.67° C | 45% | 1016.1 hPa | 0 mm | - | 471 W/m² | - |
| 1787772237 | 31.67° C | 45% | 1016.1 hPa | 0 mm | - | 461 W/m² | - |
| 1787771936 | 31.11° C | 45% | 1016.5 hPa | 0 mm | - | 474 W/m² | - |
| 1787771630 | 32.22° C | 45% | 1016.1 hPa | 0 mm | - | 360 W/m² | - |
| 1787771325 | 31.11° C | 45% | 1016.1 hPa | 0 mm | - | 346 W/m² | - |
| 1787771020 | 30.56° C | 48% | 1016.5 hPa | 0 mm | - | 360 W/m² | - |
| 1787770719 | 30.56° C | 51% | 1016.1 hPa | 0 mm | - | 381 W/m² | - |
| 1787770414 | 31.11° C | 50% | 1016.1 hPa | 0 mm | - | 348 W/m² | - |
| 1787770112 | 30.56° C | 48% | 1016.5 hPa | 0 mm | - | 363 W/m² | - |
| 1787769807 | 31.11° C | 45% | 1016.1 hPa | 0 mm | - | 365 W/m² | - |
| 1787769506 | 31.11° C | 45% | 1016.5 hPa | 0 mm | - | 402 W/m² | - |
| 1787769206 | 31.11° C | 45% | 1016.5 hPa | 0 mm | - | 386 W/m² | - |
| 1787768900 | 30.56° C | 50% | 1016.8 hPa | 0 mm | - | 406 W/m² | - |
| 1787768596 | 30.56° C | 52% | 1016.8 hPa | 0 mm | - | 415 W/m² | - |
* Rain latest hour (hover to see other rain measurements)
** Current wind speed in m/s (hover to see current wind gust speed)